DW8455 Weather Reports


Display with metric or nautical units.
time (UTC)temp
F
wind
direction
speed
MPH
gust
MPH
rain 1hr
in
rain 24hr
in
rain mn
in
humidity
%
barometer
mb
20260906225015 83 315 4.0 6.0 0.00 0.00 0.00 21 1018.6
20260906224015 85 338 4.0 8.0 0.00 0.00 0.00 22 1018.9
20260906223016 83 0 4.0 7.0 0.00 0.00 0.00 22 1018.7
20260906222015 82 158 3.0 6.0 0.00 0.00 0.00 22 1019.0
20260906221016 84 180 4.0 9.0 0.00 0.00 0.00 22 1019.4
20260906220017 83 68 1.0 4.0 0.00 0.00 0.00 22 1019.2
20260906215018 84 45 4.0 7.0 0.00 0.00 0.00 23 1019.7
20260906214017 83 23 6.0 10.0 0.00 0.00 0.00 24 1019.4
20260906213018 82 270 2.0 5.0 0.00 0.00 0.00 24 1019.6
20260906212018 82 23 7.0 11.0 0.00 0.00 0.00 25 1019.8
20260906211037 81 338 7.0 11.0 0.00 0.00 0.00 24 1019.7
20260906210017 82 338 4.0 7.0 0.00 0.00 0.00 26 1020.4
20260906205017 81 0 6.0 9.0 0.00 0.00 0.00 28 1020.2
20260906204017 81 338 8.0 11.0 0.00 0.00 0.00 32 1020.5
20260906203018 80 0 7.0 14.0 0.00 0.00 0.00 30 1020.6
20260906202018 79 315 8.0 13.0 0.00 0.00 0.00 32 1020.8
20260906201017 78 0 12.0 16.0 0.00 0.00 0.00 34 1020.6
20260906200017 78 23 11.0 16.0 0.00 0.00 0.00 37 1021.1
20260906195017 76 0 12.0 17.0 0.00 0.00 0.00 42 1021.1
20260906194017 77 0 9.0 13.0 0.00 0.00 0.00 44 1021.7
20260906193037 76 23 7.0 13.0 0.00 0.00 0.00 47 1021.7
20260906192017 75 23 5.0 10.0 0.00 0.00 0.00 49 1022.0
20260906191017 73 23 6.0 12.0 0.00 0.00 0.00 49 1021.9
20260906190017 74 338 7.0 11.0 0.00 0.00 0.00 47 1022.5
20260906185037 73 68 4.0 8.0 0.00 0.00 0.00 45 1022.8
20260906184017 72 0 5.0 8.0 0.00 0.00 0.00 48 1022.8
20260906183017 71 0 5.0 9.0 0.00 0.00 0.00 47 1022.9
20260906182017 71 45 4.0 6.0 0.00 0.00 0.00 48 1023.2
20260906181017 71 90 4.0 8.0 0.00 0.00 0.00 44 1023.2
20260906180017 70 45 3.0 7.0 0.00 0.00 0.00 43 1023.5
20260906175017 69 23 2.0 6.0 0.00 0.00 0.00 49 1023.8
20260906174017 68 23 3.0 6.0 0.00 0.00 0.00 50 1023.7
20260906173017 67 0 2.0 8.0 0.00 0.00 0.00 50 1023.9
20260906172017 67 0 3.0 5.0 0.00 0.00 0.00 52 1024.6
20260906171017 66 23 3.0 7.0 0.00 0.00 0.00 54 1024.5
20260906170057 64 338 4.0 7.0 0.00 0.00 0.00 55 1024.3
20260906165037 63 315 1.0 3.0 0.00 0.00 0.00 56 1024.6
20260906164017 63 293 2.0 4.0 0.00 0.00 0.00 56 1024.7
20260906163017 62 315 2.0 6.0 0.00 0.00 0.00 57 1024.9
20260906162017 62 248 2.0 4.0 0.00 0.00 0.00 57 1025.1
20260906161017 61 248 1.0 3.0 0.00 0.00 0.00 59 1025.2
20260906160017 59 248 1.0 3.0 0.00 0.00 0.00 61 1025.1
20260906155017 58 203 1.0 3.0 0.00 0.00 0.00 64 1025.3
20260906154037 57 135 1.0 3.0 0.00 0.00 0.00 66 1025.0
20260906153017 56 158 3.0 5.0 0.00 0.00 0.00 68 1024.8
20260906152017 54 180 4.0 6.0 0.00 0.00 0.00 70 1025.3
20260906151017 53 180 5.0 7.0 0.00 0.00 0.00 71 1024.9
20260906150017 53 180 3.0 6.0 0.00 0.00 0.00 73 1025.0
20260906145017 52 158 2.0 3.0 0.00 0.00 0.00 72 1024.9
20260906144037 50 113 1.0 2.0 0.00 0.00 0.00 75 1024.6
20260906143017 49 68 2.0 4.0 0.00 0.00 0.00 79 1024.3
20260906142017 47 45 4.0 7.0 0.00 0.00 0.00 81 1024.7
20260906141017 46 45 4.0 5.0 0.00 0.00 0.00 82 1024.4
20260906140017 45 0 3.0 4.0 0.00 0.00 0.00 82 1023.9
20260906135017 44 0 2.0 3.0 0.00 0.00 0.00 80 1024.8
20260906134016 47 293 3.0 6.0 0.00 0.00 0.00 76 1025.2
20260906133037 48 90 3.0 5.0 0.00 0.00 0.00 78 1025.4
20260906132017 46 90 6.0 9.0 0.00 0.00 0.00 78 1026.1
20260906130036 45 113 3.0 4.0 0.00 0.00 0.00 78 1025.8
20260906125016 46 0.0 0.0 0.00 0.00 0.00 77 1025.8
20260906124017 46 0.0 0.0 0.00 0.00 0.00 76 1025.5
20260906123017 47 0.0 0.0 0.00 0.00 0.00 75 1025.2
20260906122017 47 135 2.0 3.0 0.00 0.00 0.00 76 1025.5
20260906121037 47 113 2.0 3.0 0.00 0.00 0.00 76 1025.4
20260906120017 47 113 3.0 4.0 0.00 0.00 0.00 76 1025.4
20260906115017 47 180 2.0 4.0 0.00 0.00 0.00 75 1025.7
20260906114016 47 180 4.0 5.0 0.00 0.00 0.00 75 1025.6
20260906113016 47 0.0 0.0 0.00 0.00 0.00 74 1025.7
20260906112017 49 0.0 0.0 0.00 0.00 0.00 72 1025.5
20260906111017 50 135 1.0 3.0 0.00 0.00 0.00 71 1025.9
20260906110038 49 158 3.0 5.0 0.00 0.00 0.00 72 1025.5
20260906105036 49 158 3.0 6.0 0.00 0.00 0.00 73 1025.4
20260906104017 48 0.0 0.0 0.00 0.00 0.00 73 1025.4
20260906103016 49 0.0 0.0 0.00 0.00 0.00 74 1025.2
20260906102017 49 0.0 0.0 0.00 0.00 0.00 73 1025.2
20260906101017 49 0.0 0.0 0.00 0.00 0.00 72 1025.1
20260906100017 50 0.0 1.0 0.00 0.00 0.00 71 1025.3
20260906095017 50 68 1.0 2.0 0.00 0.00 0.00 70 1025.0
20260906094016 51 0.0 2.0 0.00 0.00 0.00 68 1025.1
20260906093016 52 68 1.0 2.0 0.00 0.00 0.00 68 1024.9
20260906092016 51 0.0 0.0 0.00 0.00 0.00 68 1024.7
20260906091016 52 0.0 0.0 0.00 0.00 0.00 68 1025.2
20260906090016 52 0.0 1.0 0.00 0.00 0.00 67 1025.3
20260906085017 52 113 1.0 3.0 0.00 0.00 0.00 67 1024.8
20260906084016 52 135 4.0 5.0 0.00 0.00 0.00 67 1024.7
20260906083016 52 270 1.0 3.0 0.00 0.00 0.00 67 1024.6
20260906082016 52 0.0 2.0 0.00 0.00 0.00 66 1024.4
20260906081016 54 135 1.0 5.0 0.00 0.00 0.00 63 1024.4
20260906080016 54 135 1.0 3.0 0.00 0.00 0.00 63 1024.8
20260906075016 54 135 3.0 4.0 0.00 0.00 0.00 63 1024.5
20260906074016 55 158 2.0 3.0 0.00 0.00 0.00 61 1024.6
20260906073016 56 158 3.0 4.0 0.00 0.00 0.00 60 1024.7
20260906072016 55 158 4.0 5.0 0.00 0.00 0.00 61 1025.1
20260906071016 55 270 1.0 3.0 0.00 0.00 0.00 61 1025.1
20260906070016 56 270 1.0 4.0 0.00 0.00 0.00 61 1025.0
20260906065036 56 0.0 0.0 0.00 0.00 0.00 60 1024.2
20260906064016 56 0.0 0.0 0.00 0.00 0.00 59 1024.2
20260906063016 57 0.0 0.0 0.00 0.00 0.00 58 1024.3
20260906062016 58 0.0 0.0 0.00 0.00 0.00 57 1024.4
20260906061016 57 0.0 3.0 0.00 0.00 0.00 57 1024.3
20260906060016 58 0.0 0.0 0.00 0.00 0.00 56 1024.3
20260906055016 58 0.0 0.0 0.00 0.00 0.00 56 1024.1
20260906054016 59 0.0 0.0 0.00 0.00 0.00 55 1024.0
20260906053016 59 0.0 2.0 0.00 0.00 0.00 53 1023.9
20260906052036 59 135 2.0 4.0 0.00 0.00 0.00 54 1023.2
20260906051016 60 90 2.0 3.0 0.00 0.00 0.00 53 1023.1
20260906050016 60 0.0 2.0 0.00 0.00 0.00 51 1023.1
20260906045015 61 45 1.0 3.0 0.00 0.00 0.00 50 1023.0
20260906044015 62 45 2.0 4.0 0.00 0.00 0.00 49 1022.9
20260906043016 62 23 4.0 5.0 0.00 0.00 0.00 47 1023.0
20260906042016 62 45 3.0 6.0 0.00 0.00 0.00 49 1022.7
20260906041016 62 0 2.0 4.0 0.00 0.00 0.00 48 1022.5
20260906040036 63 0 1.0 3.0 0.00 0.00 0.00 49 1022.8
20260906034016 64 135 2.0 3.0 0.00 0.00 0.00 47 1022.2
20260906033036 64 135 2.0 4.0 0.00 0.00 0.00 47 1022.0
20260906032036 65 113 3.0 6.0 0.00 0.00 0.00 46 1021.7
20260906031016 66 135 3.0 5.0 0.00 0.00 0.00 44 1021.9
20260906030036 67 135 3.0 6.0 0.00 0.00 0.00 44 1021.7
20260906025036 67 135 6.0 8.0 0.00 0.00 0.00 44 1021.2
20260906024116 66 135 5.0 7.0 0.00 0.00 0.00 46 1020.9
20260906023015 66 158 5.0 7.0 0.00 0.00 0.00 46 1020.7
20260906022015 66 158 6.0 10.0 0.00 0.00 0.00 46 1020.1
20260906021015 67 135 5.0 7.0 0.00 0.00 0.00 46 1020.0
20260906020015 68 293 2.0 5.0 0.00 0.00 0.00 47 1020.2
20260906015015 70 113 1.0 3.0 0.00 0.00 0.00 45 1020.0
20260906014016 72 113 4.0 7.0 0.00 0.00 0.00 44 1020.3
20260906013035 74 113 1.0 3.0 0.00 0.00 0.00 42 1020.6
20260906012015 75 135 3.0 4.0 0.00 0.00 0.00 40 1020.9
20260906011036 76 135 2.0 5.0 0.00 0.00 0.00 38 1021.2
20260906010016 78 90 9.0 14.0 0.00 0.00 0.00 30 1021.3
20260906005015 80 90 6.0 14.0 0.00 0.00 0.00 28 1021.6
20260906004015 81 68 6.0 12.0 0.00 0.00 0.00 29 1022.0
20260906003015 80 90 9.0 13.0 0.00 0.00 0.00 28 1021.6
20260906002015 80 45 6.0 11.0 0.00 0.00 0.00 26 1021.6
20260906001015 81 338 5.0 7.0 0.00 0.00 0.00 26 1021.9
20260906000015 81 270 4.0 7.0 0.00 0.00 0.00 25 1022.0
20260905235016 82 180 1.0 4.0 0.00 0.00 0.00 22 1021.9
20260905234015 82 135 2.0 5.0 0.00 0.00 0.00 23 1022.0
20260905233035 83 23 3.0 5.0 0.00 0.00 0.00 22 1022.2
20260905232015 83 45 2.0 5.0 0.00 0.00 0.00 22 1022.2
20260905231015 82 113 1.0 5.0 0.00 0.00 0.00 25 1022.4
20260905230018 81 90 2.0 7.0 0.00 0.00 0.00 25 1022.2